Location: Unspecified
(57.6483°N, 3.3184°W)
Time: 09:59:49
(UTC+01:00)

POLYITAN 1 - Visible Passes

Search period start: 09 May 2021 00:00
Search period end: 19 May 2021 00:00
Orbit: 591 x 610 km, 97.9° (Epoch: 08 May)

Date Brightness Start Highest point End Pass type
(mag) Time Alt. Az. Time Alt. Az. Time Alt. Az.
09 May ? 02:12:58 10° NNE 02:17:05 42° E 02:20:07 17° SSE visible
09 May ? 03:48:52 10° N 03:52:45 34° WNW 03:56:37 10° SW visible
10 May ? 02:24:07 10° NNE 02:28:20 53° E 02:31:30 17° S visible
10 May ? 04:00:10 10° N 04:03:51 29° WNW 04:07:33 10° WSW visible
11 May ? 01:01:29 10° ENE 01:03:00 12° E 01:04:29 10° ESE visible
11 May ? 02:35:17 10° NNE 02:39:35 65° ESE 02:42:53 16° S visible
12 May ? 01:12:01 10° NE 01:14:21 14° E 01:16:41 10° ESE visible
12 May ? 02:46:28 10° NNE 02:50:47 80° ESE 02:54:16 15° SSW visible
13 May ? 01:22:48 10° NE 01:25:42 17° E 01:28:34 10° SE visible
13 May ? 02:57:40 10° NNE 03:01:59 83° WNW 03:05:39 14° SSW visible
14 May ? 01:33:43 10° NE 01:37:01 21° E 01:40:16 10° SE visible
14 May ? 03:08:53 10° NNE 03:13:10 68° WNW 03:17:02 12° SSW visible
15 May ? 01:44:43 10° NE 01:48:20 25° E 01:51:39 11° SSE visible
15 May ? 03:20:07 10° N 03:24:20 56° WNW 03:28:24 11° SW visible
16 May ? 01:55:46 10° NNE 01:59:37 31° E 02:03:01 12° SSE visible
16 May ? 03:31:22 10° N 03:35:30 45° WNW 03:39:34 10° SW visible
17 May ? 02:06:51 10° NNE 02:10:53 37° E 02:14:24 13° SSE visible
17 May ? 03:42:38 10° N 03:46:37 38° WNW 03:50:34 10° SW visible
18 May ? 02:17:58 10° NNE 02:22:08 46° E 02:25:46 13° S visible
